Regional Weather Roundup
Issued by NWS

Home | Current Version | Previous Version | Graphics & Text | Print | Product List | Glossary On
Versions: 1 2 3 4 5 6 7 8 9 10 11 12 13 14 15 16 17 18 19 20 21 22 23 24 25 26 27 28 29 30 31 32 33 34 35 36 37 38 39 40 41 42 43 44 45 46 47 48 49 50
000
ASUS43 KBIS 022010
RWRND

NORTH DAKOTA REGIONAL WEATHER ROUNDUP
NATIONAL WEATHER SERVICE BISMARCK ND
300 PM CDT WED SEP 02 2015

NOTE: "FAIR" INDICATES FEW OR NO CLOUDS BELOW 12,000 FEET WITH NO
SIGNIFICANT WEATHER AND/OR OBSTRUCTIONS TO VISIBILITY.


NDZ001>003-009>011-017-022100-
NORTHWEST NORTH DAKOTA

CITY           SKY/WX    TMP DP  RH WIND       PRES   REMARKS
WILLISTON      SUNNY     97  52  21 SE18G24   29.68F HX  94
MINOT          SUNNY     92  60  34 SE13      29.71F HX  91
MINOT AFB      SUNNY     93  63  36 SE17      29.70F HX  94
$$

NDZ018>021-031>035-040>046-022100-
SOUTHWEST NORTH DAKOTA

CITY           SKY/WX    TMP DP  RH WIND       PRES   REMARKS
BISMARCK       SUNNY     88  68  51 SE8       29.75F HX  91
DICKINSON      MOSUNNY   93  45  19 S17G23    29.74F
GARRISON         N/A     93  63  36 SE10      29.73F HX  94
HETTINGER ARPT SUNNY     92  48  22 S10G22    29.79S
$$

NDZ004>008-012>016-024-026-027-054-022100-
NORTHEAST NORTH DAKOTA

CITY           SKY/WX    TMP DP  RH WIND       PRES   REMARKS
GRAND FORKS    SUNNY     88  66  48 S14G22    29.79F HX  90
GRND FRKS AFB  SUNNY     87  67  51 S15       29.80F HX  90
DEVILS LAKE    SUNNY     88  66  48 SE13      29.77S HX  90
$$

NDZ022-023-025-028>030-036>039-047>053-022100-
SOUTHEAST NORTH DAKOTA

CITY           SKY/WX    TMP DP  RH WIND       PRES   REMARKS
FARGO          SUNNY     90  65  43 SE14G24   29.80F HX  92
JAMESTOWN      SUNNY     88  68  51 SE15G29   29.77F HX  91
$$



USA.gov is the U.S. government's official web portal to all federal, state and local government web resources and services.